Regional Weather Roundup
Issued by NWS Cleveland, OH

Home | Current Version | Previous Version | Graphics & Text | Print | Product List | Glossary On
Versions: 1 2 3 4 5 6 7 8 9 10 11 12 13 14 15 16 17 18 19 20 21 22 23 24 25 26 27 28 29 30 31 32 33 34 35 36 37 38 39 40 41 42 43 44 45 46 47 48 49 50
000
ASUS41 KCLE 232010
RWRCLE
OHIO REGIONAL WEATHER ROUNDUP
NATIONAL WEATHER SERVICE WILMINGTON, OH
400 PM EDT WED MAY 23 2018

NOTE: "FAIR" INDICATES FEW OR NO CLOUDS BELOW 12,000 FEET WITH NO
SIGNIFICANT WEATHER AND/OR OBSTRUCTIONS TO VISIBILITY.

OHZ001>008-015>018-024>027-034-035-043-044-232100-
   NORTHWEST OHIO

CITY           SKY/WX    TMP DP  RH WIND       PRES   REMARKS
DEFIANCE       FAIR      77  55  46 VRB6      30.18F
FINDLAY        FAIR      78  51  38 VRB7      30.18S
TOLEDO EXPRESS FAIR      79  51  37 NW9       30.18R
TOLEDO EXEC    FAIR      77  51  40 SE9       30.19S
LIMA           FAIR      75  56  51 VRB6      30.18F
$$

OHZ009>014-019>023-028>033-038-089-232100-
   NORTHEAST OHIO

CITY           SKY/WX    TMP DP  RH WIND       PRES   REMARKS
CLE-HOPKINS    PTSUNNY   74  46  36 N7        30.20R
CLE-LAKEFRONT  FAIR      63  55  75 W7        30.17S
CUY CO. ARPT   MOSUNNY   72  54  53 NW7       30.19R
LORAIN-ELYRIA  FAIR      73  43  33 MISG      30.19R
ASHTABULA      FAIR      71  52  50 W7        30.17R
AKRON-CANTON   FAIR      76  54  46 VRB3      30.16F
WOOSTER        FAIR      73  54  51 N5        30.18S
MANSFIELD      FAIR      73  53  49 N14G20    30.19S
YOUNGSTOWN     FAIR      73  51  46 N5        30.15F
$$

OHZ042-051>053-060>062-070>072-077>081-232100-
  SOUTHWEST OHIO

CITY           SKY/WX    TMP DP  RH WIND       PRES   REMARKS
CINC-COVINGTON FAIR      80  56  43 N8        30.14S
CINC-LUNKEN    FAIR      79  61  53 NE9       30.14S
HAMILTON       FAIR      80  60  50 E7        30.15F
DAYTON         FAIR      76  56  49 NE12      30.17F
WRIGHT-PAT AFB FAIR      77  56  48 NE8       30.16S
DAYTON GENERAL FAIR      79  52  38 E7        30.15S
WILMINGTON     FAIR      75  60  59 N12       30.16S
$$

OHZ036-037-039>041-045>050-054>059-063>069-073>076-082>088-232100-
  CENTRAL AND SOUTHEAST OHIO

CITY           SKY/WX    TMP DP  RH WIND       PRES   REMARKS
COLUMBUS       FAIR      76  54  46 VRB7      30.16F
OSU AIRPORT    FAIR      75  56  51 NE8       30.16S
BOLTON FIELD   MOSUNNY   75  57  53 NE3       30.17S
RICKENBACK AFB FAIR      74  58  56 MISG      30.15F
NEWARK         PTSUNNY   75  56  51 VRB5      30.16F
MARION         FAIR      75  52  44 NE9       30.19S
LANCASTER      FAIR      74  59  59 N7        30.17F
ZANESVILLE     PTSUNNY   72  56  57 VRB5      30.16F
NEW PHILLY     FAIR      75  55  49 NE8       30.16F
$$




USA.gov is the U.S. government's official web portal to all federal, state and local government web resources and services.